Regional Weather Roundup
Issued by NWS Pendleton, OR

Home | Current Version | Previous Version | Text Only | Print | Product List | Glossary On
Versions: 1 2 3 4 5 6 7 8 9 10 11 12 13 14 15 16 17 18 19 20 21 22 23 24 25 26 27 28 29 30 31 32 33 34 35 36 37 38 39 40 41 42 43 44 45 46 47 48 49 50
000
ASUS46 KPDT 291125
RWRPDT
PENDLETON REGIONAL WEATHER ROUNDUP
NATIONAL WEATHER SERVICE PENDLETON OREGON
400 AM PDT FRI MAY 29 2015

NOTE: FAIR INDICATES FEW OR NO CLOUDS BELOW 12,000 FEET WITH NO
SIGNIFICANT WEATHER AND/OR OBSTRUCTIONS TO VISIBILITY.

# INDICATES UNOFFICIAL STATION AND DATA

WAZ520-291210-
EAST SLOPES OF WASHINGTON CASCADES

CITY            SKY/WX      TMP DP  RH  WIND    PRES   REMARKS
#BULLFROG 2SW   N/A         51  50  96  CALM    27.64F
#BUMPING DAM    N/A         50  N/A N/A N2      N/A
#CLE ELUM HS    N/A         52  49  89  CALM    29.97S
#CLE ELUM LAKE  N/A         58  50  75  CALM    29.91F
#CLIFFDEL 2NW   N/A         51  50  96  CALM    N/A
#GLENWOOD       N/A         49  47  93  CALM    29.94
#NELSON         N/A         52  50  93  CALM    29.96F
#NELSON 3SW     N/A         52  48  86  CALM    30.12F
#NILE           N/A         51  50  96  CALM    29.27F
#RONALD 2NW     N/A         56  11  16  CALM    29.91F
#SNOWDEN        N/A         53  43  69  CALM    N/A
#TEANAWAY 4NE   N/A         53  51  93  CALM    N/A
#TROUT LAKE 1NE N/A         54  50  86  CALM    29.93F
$$

WAZ521-291210-
SIMCOE HIGHLANDS

CITY            SKY/WX      TMP DP  RH  WIND    PRES   REMARKS
#BICKLETON HS   N/A         53  37  54  CALM    N/A
#CENTERVILLE 4W N/A         62  50  65  N1      29.74F
#CENTERVILLE 1SWN/A         49  42  77  CALM    29.89S
#GOLDENDALE     N/A         57  45  64  E1      N/A
#GOLDENDALE 5WNWN/A         55  46  72  CALM    29.90F
#GOODNOE HILLS  N/A         65  44  46  CALM    N/A
#LYLE 6NE       N/A         61  50  67  CALM    29.88F
$$

WAZ026-291210-
KITTITAS VALLEY

CITY            SKY/WX      TMP DP  RH  WIND    PRES   REMARKS
ELLENSBURG AP   CLOUDY      60  53  78  VRB3    30.01S
YTC-OPS AREA    N/A         63  46  54  NW5     30.03S
#ELLENSBURG CWU N/A         60  53  78  NW2     29.89S
#ELLENSBURG 3NE N/A         57  53  86  CALM    30.01S
#ELLENSBURG 1E  N/A         59  51  75  CALM    N/A
#KITTITAS 3S    N/A         54  51  90  CALM    29.93S
#THORP 6N       N/A         57  52  83  N3      29.95S
$$

WAZ027-291210-
YAKIMA VALLEY

CITY            SKY/WX      TMP DP  RH  WIND    PRES   REMARKS
SUNNYSIDE AP    PTCLDY      55  50  83  CALM    29.96S
YAKIMA AIRPORT  MOCLDY      62  52  70  W6      29.98F
#DONALD 2NE     N/A         66  48  52  N2      28.80F
#GRANDVIEW      N/A         59  51  75  CALM    29.94S
#MABTON         N/A         59  50  72  S3      29.96R
#NACHES 2SW     N/A         60  54  81  W6      30.02R
#OUTLOOK DOT    N/A         N/A N/A N/A CALM    N/A
#SELAH 8E       N/A         53  47  80  SE5     N/A
#TERRACE HTS    N/A         60  53  78  CALM    29.89F
#TOPPENISH      N/A         65  55  70  CALM    29.84F
#WAPATO 4NE     N/A         66  48  52  N2      28.80F
#WEST VALLEY    N/A         63  53  70  CALM    29.91F
#W YAKIMA       N/A         62  54  75  NW3     29.92F
#WHITE SWAN 5E  N/A         58  53  83  SW1     29.93F
$$

WAZ028-291210-
LOWER COLUMBIA BASIN...WASHINGTON

CITY            SKY/WX      TMP DP  RH  WIND    PRES   REMARKS
PASCO           PTCLDY      54  51  90  NW3     29.95S
RICHLAND AWOS   PTCLDY      59  54  83  W5      29.95S
#BASIN CITY 5SW N/A         57  53  86  NE2     29.96S
#BENTON CITY    N/A         59  52  78  CALM    29.84S
#CONNELL 5N     N/A         61  52  72  N6      29.92S
#CONNELL 5NW    N/A         59  51  75  E5      29.89S
#ELTOPIA        N/A         62  54  75  CALM    29.88F
#ELTOPIA 6NW    N/A         60  53  78  N2      28.93F
#KAHLOTUS       N/A         59  51  75  S2      29.93S
#KENNEWICK      N/A         51  50  96  CALM    27.64F
#KENNEWICK 3S   N/A         63  51  65  CALM    29.92S
#PATERSON       N/A         60  54  81  CALM    29.91R
#PROSSER        N/A         66  48  52  SW2     29.92S
#SAGEMOOR 2W    N/A         60  54  81  CALM    29.77F
#TOUCHET 2S     N/A         51  48  89  CALM    29.91S
#WEST PASCO     N/A         62  52  70  CALM    29.94R
$$

WAZ029-291210-
FOOTHILLS OF THE BLUES...WASHINGTON

CITY            SKY/WX      TMP DP  RH  WIND    PRES   REMARKS
WALLA WALLA AP  PTCLDY      64  50  60  E5      29.95S
#DAYTON SCHOOL  N/A         56  45  66  CALM    29.98F
#PLEASANT VIEW 1N/A         59  51  75  CALM    29.95S
#PRESCOTT       N/A         56  52  86  CALM    29.90S
#SUDBURY        N/A         54  N/A N/A CALM    N/A
#WHITMAN COLLEGEN/A         68  51  55  E1      29.95S
#WAITSBURG 8N   N/A         52  29  41  CALM    29.82S
#WALLA WALLA U  N/A         60  54  81  CALM    29.90F
#WHITMAN MISSIONN/A         54  51  90  CALM    29.92S
$$

WAZ030-291210-
BLUE MOUNTAINS...WASHINGTON

CITY            SKY/WX      TMP DP  RH  WIND    PRES   REMARKS
#DIXIE 5SE      N/A         66  43  43  CALM    29.96F
$$

ORZ009-041-WAZ024-291210-
COLUMBIA RIVER GORGE

CITY            SKY/WX      TMP DP  RH  WIND    PRES   REMARKS
HOOD RIVER AP   PTCLDY      57  52  83  CALM    29.97F
THE DALLES AP   PTCLDY      66  53  63  CALM    29.94S
#ARLINGTON AIRPON/A         62  46  56  CALM    29.80S
#MOSIER 1S      N/A         61  45  56  CALM    29.94F
#MURDOCK        N/A         67  57  70  W7      29.94S

$$

ORZ510-291210-
NORTH CENTRAL OREGON

CITY            SKY/WX      TMP DP  RH  WIND    PRES   REMARKS
#DUFUR 9E       N/A         67  50  54  SW1     29.94S
#GRASS VALLEY 1SN/A         59  47  64  E1      29.91S
#MAUPIN SCHOOL  N/A         63  49  60  CALM    29.98S
#MORO SCHOOL    N/A         63  55  75  CALM    29.99S
#TYGH VALLEY 2NEN/A         59  51  75  CALM    29.91F
#WAPANITIA AIRPON/A         59  51  75  W2      29.92S
#WASCO AIRPORT  N/A         61  48  62  CALM    N/A
#WASCO 5NE      N/A         62  51  67  SW2     29.91S
$$

ORZ511-291210-
CENTRAL OREGON

CITY            SKY/WX      TMP DP  RH  WIND    PRES   REMARKS
BEND AIRPORT    CLEAR       52  45  77  SW6     30.05F
MADRAS AIRPORT  MOCLDY      52  48  86  S7      30.03S
PRINEVILLE AP   CLEAR       48  43  83  CALM    30.04F
REDMOND AIRPORT MOCLEAR     51  45  80  SE3     30.03F
#BEND 1SW       N/A         48  44  86  N2      N/A
#BEND-AWBREY    N/A         56  46  69  CALM    29.90F
#BEND-KIM LN    N/A         54  46  74  S1      30.03F
#CROOKED RVR RANN/A         56  48  74  SE1     29.90F
#CULVER         N/A         56  49  77  CALM    29.98S
#LAKE BILLY CHINN/A         59  35  40  CALM    30.08F
#POWELL BUTTE 3EN/A         52  44  74  S2      N/A
#POWELL BUTTE   N/A         54  44  69  CALM    29.67F
#PRINEVILLE 3N  N/A         47  44  89  SE1     29.90S
#WARM SPRINGS   N/A         63  50  62  CALM    29.95F

$$


ORZ509-291210-
EAST SLOPES OF OREGON CASCADES

CITY            SKY/WX      TMP DP  RH  WIND    PRES   REMARKS
#CAMP SHERMAN   N/A         45  42  89  CALM    29.94R
#LA PINE 4NW    N/A         42  38  86  CALM    29.98S
#SISTERS AIRPOR N/A         48  48  100 CALM    30.17S
#SISTERS 1NW    N/A         49  43  80  NE6     N/A
#SISTERS 3N     N/A         47  40  76  CALM    30.04S
#SUNRIVER       N/A         45  41  86  CALM    29.82F
#TUMALO 3W      N/A         59  44  57  SW5     29.78F

$$

ORZ044-291210-
LOWER COLUMBIA BASIN...OREGON

CITY            SKY/WX      TMP DP  RH  WIND    PRES   REMARKS
HERMISTON       PTCLDY      54  50  86  CALM    29.94S
#BOARDMAN SCHOOLN/A         57  51  80  CALM    29.95S
#ECHO 8SW       N/A         58  48  69  SW1     29.95S
#IONE SCHOOL    N/A         58  42  55  CALM    29.93S
#IRRIGON 4NW    N/A         57  55  93  E1      N/A
#UMATILLA SCHOOLN/A         57  57  100 CALM    29.98S
#UMATILLA       N/A         59  50  72  CALM    29.85S
$$

ORZ507-291210-
NORTHERN FOOTHILLS OF THE BLUES

CITY            SKY/WX      TMP DP  RH  WIND    PRES   REMARKS
PENDLETON AIRPT PTCLDY      60  49  67  SE9     29.96F
#ADAMS 3WNW     N/A         52  48  86  CALM    29.91F
#ATHENA         N/A         59  49  69  CALM    29.92F
#CAYUSE         N/A         63  51  65  E6      29.90F
#HELIX SCHOOL   N/A         52  47  83  CALM    29.91F
#HELIX 3N       N/A         63  48  58  N7      29.95F
#HELIX 6SW      N/A         54  49  83  E1      29.96
#HOLDMAN 6E     N/A         60  49  67  NW1     29.72F
#M-F FERNDALE   N/A         57  51  80  CALM    29.93F
#M-F GROVE ELEM N/A         64  48  56  CALM    29.93S
#M-FREEWATER 5SEN/A         66  51  58  NE1     29.94F
#PENDLETON DNTN N/A         57  47  69  NE2     29.96S
#PDT AQUATIC CTRN/A         58  45  62  CALM    29.95F
#PENDLETON 5NE  N/A         53  50  89  CALM    29.93S
#PDT SUNRIDGE   N/A         52  48  86  CALM    29.97F
#PENDLETON 7NW  N/A         58  50  75  CALM    29.89R
#PILOT ROCK     N/A         61  48  62  CALM    29.99F
#TUTUILLA       N/A         51  48  89  CALM    29.94F
#UMAPINE 2E     N/A         54  50  86  CALM    29.91S
#WESTON SCHOOL  N/A         69  45  42  SW2     29.93S

$$

ORZ508-291210-
SOUTHERN FOOTHILLS OF THE BLUES

CITY            SKY/WX      TMP DP  RH  WIND    PRES   REMARKS
#AJAX           N/A         66  40  38  CALM    29.93F
#CONDON SCHOOL  N/A         62  45  54  CALM    29.98F
#CONDON 5W      N/A         64  40  41  E1      30.01F
#FOSSIL SCHOOL  N/A         52  45  77  CALM    29.97F
#HEPPNER EOC    N/A         60  46  60  SE7     29.84F
#HEPPNER 4NE    N/A         59  43  55  E1      29.90F
#LEXINGTON 2SE  N/A         60  46  60  S3      29.95R
#RUGGS 5NE      N/A         57  43  59  E1      30.20F
#RUGGS 2SW      N/A         62  44  52  S6      29.92S

$$

ORZ502-503-291210-
BLUE MOUNTAINS

CITY            SKY/WX      TMP DP  RH  WIND    PRES   REMARKS
MEACHAM         PTCLDY      44  41  89  CALM    30.08S
#HEPPNER 15SE   N/A         49  43  80  CALM    29.99F
#LONG CREEK HS  N/A         49  46  89  CALM    30.03S
#PIKES PEAK     N/A         68  45  44  S8      27.99S
#TOLLGATE       N/A         51  45  80  CALM    30.04F
#TROY SCHOOL    N/A         53  49  86  CALM    29.85S
#UKIAH          N/A         43  41  93  CALM    30.04S
#WESTON 4E      N/A         61  47  60  E8      29.85F
$$

ORZ505-291210-
JOHN DAY BASIN

CITY            SKY/WX      TMP DP  RH  WIND    PRES   REMARKS
JOHN DAY        CLEAR       53  42  66  SE10    30.09S
#JOHN DAY KJDY  N/A         50  46  86  CALM    29.97F
#DAYVILLE SCHOOLN/A         53  43  69  CALM    30.03S
#MITCHELL       N/A         55  48  77  CALM    30.17F
#MONUMENT HS    N/A         52  46  80  CALM    30.04S
#MT. VERNON 5SE N/A         55  41  59  CALM    30.05S
$$

ORZ506-291210-
OCHOCO AND JOHN DAY HIGHLANDS

CITY            SKY/WX      TMP DP  RH  WIND    PRES   REMARKS
#PAULINA SCHOOL N/A         46  41  83  CALM    30.04S
#PINE MTN OBS   N/A         55  36  49  SE3     N/A
#PRAIRIE CITY   N/A         45  43  93  CALM    30.14R
#SENECA         N/A         43  N/A N/A CALM    N/A
#SENECA 9NW     N/A         38  36  92  CALM    29.99F
$$

ORZ049-291210-
GRANDE RONDE VALLEY

CITY            SKY/WX      TMP DP  RH  WIND    PRES   REMARKS
LA GRANDE       PTCLDY      52  37  56  CALM    30.06S
#COVE           N/A         53  50  89  CALM    30.06F
#COVE SCHOOL    N/A         53  47  80  CALM    30.03F
#ELGIN 3N       N/A         49  43  80  CALM    30.04S
#ISLAND CITY 4N N/A         56  54  93  CALM    29.96S
#LA GRANDE ELEM N/A         53  47  80  CALM    30.07F
#UNION 1S       N/A         54  47  77  SE1     29.89S
$$

ORZ050-291210-
WALLOWA COUNTY

CITY            SKY/WX      TMP DP  RH  WIND    PRES   REMARKS
JOSEPH AIRPORT  N/A         48  43  83  S3      30.11F
#ENTERPRISE HS  N/A         46  43  89  CALM    30.09F
#IMNAHA SCHOOL  N/A         53  49  86  S1      30.05S
#IMNAHA 10S     N/A         51  45  80  SW3     30.06F
#JOSEPH 3N      N/A         44  38  79  CALM    30.11S
#JOSEPH 3W      N/A         50  44  80  W2      29.95F
#LOSTINE        N/A         47  44  89  CALM    29.79F
#MT HOWARD 8000 N/A         47  36  65  S7      30.27F
#PROMISE 1S     N/A         49  46  89  CALM    30.07F
#SHEEP RDG 7000 N/A         52  38  59  CALM    30.01S
#WALLOWA SCHOOL N/A         46  44  93  CALM    30.90S



$$



USA.gov is the U.S. government's official web portal to all federal, state and local government web resources and services.